Location: Hengforden
(52.3167°N, 6.1333°E)
Time: 15:45:40
(UTC+00:00)

H-2A R/B - Pass Details

Date: 14 June 2025
Orbit: 493 x 571 km, 98.2° (Epoch: 19 July)

Event Time Altitude Azimuth Distance (km) Brightness Sun altitude
Exits shadow 23:31:19 10° 122° (ESE) 1,700 4.5 -14.4°
Reaches altitude 10° 23:31:19 10° 122° (ESE) 1,700 4.5 -14.4°
Maximum altitude 23:34:24 26° 64° (ENE) 1,000 3.9 -14.4°
Drops below altitude 10° 23:37:29 10° 6° (N) 1,702 6.2 -14.4°
Sets 23:39:46 0° 354° (N) 2,591 7.7 -14.4°
